Weather History for Sheridan, WY

Change the Weather History Date:

Sunday, March 16, 2014

  Actual Average Record
Temperature  
Mean Temperature 45 °F 35 °F  
Max Temperature 64 °F 49 °F 77 °F (1994)
Min Temperature 25 °F 22 °F -8 °F (1943)
Degree Days  
Heating Degree Days 20 30  
Month to date heating degree days 527 515  
Since 1 July heating degree days 6277 6050  
Cooling Degree Days 0 0  
Month to date cooling degree days 0 0  
Year to date cooling degree days 0 0  
Moisture  
Dew Point 22 °F    
Average Humidity 51    
Maximum Humidity 84    
Minimum Humidity 17    
Precipitation  
Precipitation 0.00 in 0.03 in 0.51 in (1934)
Month to date precipitation 0.69 0.43  
Year to date precipitation 2.54 1.53  
Sea Level Pressure  
Sea Level Pressure 30.02 in    
Wind  
Wind Speed 6 mph (WSW)    
Max Wind Speed 18 mph    
Max Gust Speed 23 mph    
Visibility 10 miles    
Events      
T = Trace of Precipitation, MM = Missing Value Source: NWS Daily Summary

Daily Weather History Graph

Daily Weather History Graph

Search for Another Location

Airport:

Trip Planner

Search our weather history database for the weather conditions in past years. The results will help you decide how hot, cold, wet, or windy it might be!

Date:

Astronomy

Mar. 16, 2014 Rise Set
Actual Time 7:18 AM MDT 7:15 PM MDT
Civil Twilight 6:49 AM MDT 7:44 PM MDT
Nautical Twilight 6:15 AM MDT 8:18 PM MDT
Astronomical Twilight 5:40 AM MDT 8:53 PM MDT
Moon 7:37 PM MDT (3/16) 7:02 AM MDT (3/16)
Length of Visible Light 12h 55m
Length of Day
11h 57m
Full, 100% of the Moon is Illuminated
Mar 16
Full
Mar 23
Last Quarter
Mar 30
New
Apr 7
First Quarter
Apr 15
Full

Hourly Weather History & Observations

Time (MDT) Temp. Windchill Dew Point Humidity Pressure Visibility Wind Dir Wind Speed Gust Speed Precip Events Conditions
12:53 AM 35.1 °F 28.6 °F 27.0 °F 72% 30.27 in 10.0 mi South 8.1 mph - N/A   Overcast
1:53 AM 33.1 °F 26.9 °F 26.1 °F 75% 30.25 in 10.0 mi South 6.9 mph - N/A   Mostly Cloudy
2:53 AM 34.0 °F 29.8 °F 26.1 °F 73% 30.23 in 10.0 mi SSE 4.6 mph - N/A   Overcast
3:53 AM 28.0 °F 24.2 °F 23.0 °F 81% 30.21 in 10.0 mi NW 3.5 mph - N/A   Clear
4:53 AM 27.0 °F - 21.9 °F 81% 30.21 in 10.0 mi Calm Calm - N/A   Clear
5:53 AM 26.1 °F 19.4 °F 21.9 °F 84% 30.17 in 10.0 mi SSW 5.8 mph - N/A   Clear
6:53 AM 26.1 °F 17.6 °F 21.0 °F 81% 30.19 in 10.0 mi NNW 8.1 mph - N/A   Clear
7:53 AM 27.0 °F 23.0 °F 23.0 °F 85% 30.20 in 10.0 mi SSE 3.5 mph - N/A   Clear
8:53 AM 32.0 °F - 27.0 °F 82% 30.18 in 10.0 mi Calm Calm - N/A   Clear
9:53 AM 41.0 °F - 28.0 °F 60% 30.14 in 10.0 mi Calm Calm - N/A   Clear
10:53 AM 51.1 °F - 30.0 °F 44% 30.08 in 10.0 mi Variable 3.5 mph - N/A   Clear
11:53 AM 57.9 °F - 23.0 °F 26% 30.04 in 10.0 mi Variable 3.5 mph - N/A   Clear
12:53 PM 61.0 °F - 18.0 °F 19% 29.99 in 10.0 mi NNE 5.8 mph - N/A   Clear
1:53 PM 63.0 °F - 17.1 °F 17% 29.96 in 10.0 mi North - - N/A   Clear
2:53 PM 63.0 °F - 17.1 °F 17% 29.92 in 10.0 mi NE 3.5 mph - N/A   Clear
3:53 PM 62.1 °F - 18.0 °F 18% 29.93 in 10.0 mi West 18.4 mph 21.9 mph N/A   Clear
4:53 PM 60.1 °F - 24.1 °F 25% 29.92 in 10.0 mi West 8.1 mph - N/A   Clear
5:53 PM 60.1 °F - 17.1 °F 19% 29.91 in 10.0 mi Calm Calm - N/A   Clear
6:53 PM 55.0 °F - 19.9 °F 25% 29.89 in 10.0 mi Calm Calm - N/A   Clear
7:53 PM 46.9 °F - 26.1 °F 44% 29.89 in 10.0 mi WSW 3.5 mph - N/A   Clear
8:53 PM 50.0 °F - 19.9 °F 31% 29.84 in 10.0 mi SW 5.8 mph - N/A   Clear
9:53 PM 53.1 °F - 18.0 °F 25% 29.79 in 10.0 mi WSW 16.1 mph - N/A   Clear
10:53 PM 48.0 °F - 19.0 °F 32% 29.75 in 10.0 mi West 11.5 mph - N/A   Clear
11:53 PM 51.1 °F - 19.9 °F 29% 29.68 in 10.0 mi West 15.0 mph - N/A   Clear